| time (UTC) | temp F | wind direction | speed MPH | gust MPH | rain 1hr in | rain 24hr in | rain mn in | humidity % | barometer mb |
| 20260504042332 | 67 | 182 | 0.0 | 4.0 | 0.00 | 0.00 | 0.00 | 65 | 1018.8 |
| 20260504041858 | 67 | 182 | 1.0 | 4.0 | 0.00 | 0.00 | 0.00 | 64 | 1019.0 |
| 20260504041323 | 67 | 184 | 2.0 | 5.0 | 0.00 | 0.00 | 0.00 | 64 | 1019.0 |
| 20260504040828 | 67 | 179 | 2.0 | 5.0 | 0.00 | 0.00 | 0.00 | 63 | 1019.0 |
| 20260504040336 | 67 | 177 | 2.0 | 4.0 | 0.00 | 0.00 | 0.00 | 63 | 1018.9 |
| 20260504035842 | 68 | 183 | 2.0 | 5.0 | 0.00 | 0.00 | 0.00 | 63 | 1018.9 |
| 20260504035328 | 68 | 178 | 1.0 | 5.0 | 0.00 | 0.00 | 0.00 | 62 | 1018.9 |
| 20260504034834 | 68 | 186 | 2.0 | 5.0 | 0.00 | 0.00 | 0.00 | 62 | 1019.0 |
| 20260504034323 | 68 | 128 | 3.0 | 5.0 | 0.00 | 0.00 | 0.00 | 61 | 1019.0 |
| 20260504033833 | 68 | 196 | 3.0 | 6.0 | 0.00 | 0.00 | 0.00 | 61 | 1019.0 |
| 20260504033337 | 68 | 143 | 3.0 | 6.0 | 0.00 | 0.00 | 0.00 | 61 | 1019.0 |
| 20260504032822 | 69 | 180 | 3.0 | 6.0 | 0.00 | 0.00 | 0.00 | 60 | 1019.0 |
| 20260504032326 | 69 | 165 | 4.0 | 6.0 | 0.00 | 0.00 | 0.00 | 60 | 1019.0 |
| 20260504031851 | 69 | 172 | 2.0 | 7.0 | 0.00 | 0.00 | 0.00 | 59 | 1018.8 |
| 20260504031333 | 69 | 160 | 3.0 | 7.0 | 0.00 | 0.00 | 0.00 | 59 | 1018.8 |
| 20260504030836 | 69 | 188 | 3.0 | 6.0 | 0.00 | 0.00 | 0.00 | 58 | 1018.8 |
| 20260504030323 | 70 | 160 | 2.0 | 10.0 | 0.00 | 0.00 | 0.00 | 58 | 1018.5 |
| 20260504025828 | 70 | 154 | 4.0 | 10.0 | 0.00 | 0.00 | 0.00 | 58 | 1018.5 |
| 20260504025335 | 70 | 138 | 5.0 | 10.0 | 0.00 | 0.00 | 0.00 | 57 | 1018.5 |
| 20260504024822 | 70 | 135 | 7.0 | 10.0 | 0.00 | 0.00 | 0.00 | 57 | 1018.6 |
| 20260504024329 | 70 | 145 | 7.0 | 10.0 | 0.00 | 0.00 | 0.00 | 57 | 1018.6 |
| 20260504023837 | 70 | 138 | 5.0 | 9.0 | 0.00 | 0.00 | 0.00 | 57 | 1018.6 |
| 20260504023321 | 70 | 138 | 4.0 | 9.0 | 0.00 | 0.00 | 0.00 | 56 | 1018.6 |
| 20260504022828 | 71 | 125 | 4.0 | 9.0 | 0.00 | 0.00 | 0.00 | 56 | 1018.6 |
| 20260504022334 | 71 | 187 | 6.0 | 9.0 | 0.00 | 0.00 | 0.00 | 55 | 1018.6 |
| 20260504021820 | 71 | 165 | 4.0 | 9.0 | 0.00 | 0.00 | 0.00 | 55 | 1018.5 |
| 20260504021328 | 71 | 167 | 5.0 | 10.0 | 0.00 | 0.00 | 0.00 | 54 | 1018.5 |
| 20260504020855 | 71 | 151 | 6.0 | 10.0 | 0.00 | 0.00 | 0.00 | 54 | 1018.5 |
| 20260504020320 | 72 | 163 | 4.0 | 10.0 | 0.00 | 0.00 | 0.00 | 54 | 1018.3 |
| 20260504015824 | 72 | 142 | 5.0 | 11.0 | 0.00 | 0.00 | 0.00 | 53 | 1018.3 |
| 20260504015337 | 72 | 200 | 6.0 | 11.0 | 0.00 | 0.00 | 0.00 | 53 | 1018.3 |
| 20260504014824 | 72 | 179 | 4.0 | 8.0 | 0.00 | 0.00 | 0.00 | 53 | 1018.1 |
| 20260504014331 | 72 | 141 | 4.0 | 10.0 | 0.00 | 0.00 | 0.00 | 53 | 1018.1 |
| 20260504013837 | 73 | 162 | 6.0 | 10.0 | 0.00 | 0.00 | 0.00 | 53 | 1018.1 |
| 20260504013346 | 73 | 190 | 4.0 | 11.0 | 0.00 | 0.00 | 0.00 | 52 | 1018.0 |
| 20260504012829 | 73 | 188 | 6.0 | 12.0 | 0.00 | 0.00 | 0.00 | 52 | 1018.0 |
| 20260504012335 | 73 | 160 | 6.0 | 12.0 | 0.00 | 0.00 | 0.00 | 51 | 1018.0 |
| 20260504011824 | 74 | 165 | 3.0 | 9.0 | 0.00 | 0.00 | 0.00 | 50 | 1018.1 |
| 20260504011332 | 74 | 138 | 4.0 | 7.0 | 0.00 | 0.00 | 0.00 | 50 | 1018.1 |
| 20260504010857 | 74 | 151 | 4.0 | 9.0 | 0.00 | 0.00 | 0.00 | 49 | 1018.1 |
| 20260504010343 | 74 | 151 | 4.0 | 10.0 | 0.00 | 0.00 | 0.00 | 49 | 1018.0 |
| 20260504005827 | 74 | 142 | 5.0 | 10.0 | 0.00 | 0.00 | 0.00 | 49 | 1018.0 |
| 20260504005333 | 75 | 132 | 3.0 | 9.0 | 0.00 | 0.00 | 0.00 | 49 | 1018.0 |
| 20260504004843 | 75 | 132 | 4.0 | 10.0 | 0.00 | 0.00 | 0.00 | 48 | 1018.0 |
| 20260504004331 | 75 | 146 | 5.0 | 10.0 | 0.00 | 0.00 | 0.00 | 48 | 1018.0 |
| 20260504003837 | 75 | 146 | 5.0 | 11.0 | 0.00 | 0.00 | 0.00 | 48 | 1018.0 |
| 20260504003326 | 75 | 139 | 6.0 | 11.0 | 0.00 | 0.00 | 0.00 | 47 | 1018.0 |
| 20260504002834 | 75 | 146 | 4.0 | 10.0 | 0.00 | 0.00 | 0.00 | 47 | 1018.0 |
| 20260504002338 | 76 | 146 | 5.0 | 12.0 | 0.00 | 0.00 | 0.00 | 47 | 1018.0 |
| 20260504001822 | 76 | 135 | 5.0 | 13.0 | 0.00 | 0.00 | 0.00 | 47 | 1018.0 |
| 20260504001328 | 77 | 149 | 8.0 | 13.0 | 0.00 | 0.00 | 0.00 | 46 | 1018.0 |
| 20260504000834 | 77 | 155 | 5.0 | 11.0 | 0.00 | 0.00 | 0.00 | 43 | 1018.1 |
| 20260504000320 | 77 | 177 | 5.0 | 10.0 | 0.00 | 0.00 | 0.00 | 40 | 1018.1 |
| 20260503235826 | 78 | 154 | 5.0 | 10.0 | 0.00 | 0.00 | 0.00 | 40 | 1018.1 |
| 20260503235336 | 78 | 180 | 6.0 | 10.0 | 0.00 | 0.00 | 0.00 | 39 | 1018.1 |
| 20260503234825 | 78 | 177 | 4.0 | 12.0 | 0.00 | 0.00 | 0.00 | 39 | 1018.0 |
| 20260503234331 | 78 | 193 | 3.0 | 12.0 | 0.00 | 0.00 | 0.00 | 38 | 1018.0 |
| 20260503233901 | 79 | 194 | 3.0 | 10.0 | 0.00 | 0.00 | 0.00 | 38 | 1018.0 |
| 20260503233325 | 79 | 182 | 5.0 | 10.0 | 0.00 | 0.00 | 0.00 | 38 | 1018.2 |
| 20260503232851 | 79 | 172 | 7.0 | 14.0 | 0.00 | 0.00 | 0.00 | 37 | 1018.2 |
| 20260503232334 | 79 | 172 | 8.0 | 14.0 | 0.00 | 0.00 | 0.00 | 38 | 1018.2 |
| 20260503231819 | 80 | 139 | 3.0 | 7.0 | 0.00 | 0.00 | 0.00 | 38 | 1018.2 |
| 20260503231327 | 80 | 222 | 4.0 | 7.0 | 0.00 | 0.00 | 0.00 | 39 | 1018.2 |
| 20260503230855 | 80 | 188 | 4.0 | 10.0 | 0.00 | 0.00 | 0.00 | 38 | 1018.2 |
| 20260503230339 | 79 | 189 | 4.0 | 12.0 | 0.00 | 0.00 | 0.00 | 38 | 1018.5 |
| 20260503225845 | 79 | 132 | 9.0 | 12.0 | 0.00 | 0.00 | 0.00 | 39 | 1018.5 |
| 20260503225329 | 79 | 132 | 9.0 | 12.0 | 0.00 | 0.00 | 0.00 | 38 | 1018.5 |
| 20260503224835 | 79 | 136 | 3.0 | 11.0 | 0.00 | 0.00 | 0.00 | 38 | 1018.5 |
| 20260503224322 | 79 | 144 | 5.0 | 10.0 | 0.00 | 0.00 | 0.00 | 38 | 1018.5 |
| 20260503223848 | 80 | 133 | 6.0 | 9.0 | 0.00 | 0.00 | 0.00 | 37 | 1018.5 |
| 20260503223333 | 80 | 137 | 2.0 | 12.0 | 0.00 | 0.00 | 0.00 | 38 | 1018.7 |
| 20260503222859 | 79 | 145 | 3.0 | 12.0 | 0.00 | 0.00 | 0.00 | 42 | 1018.7 |
| 20260503222344 | 79 | 104 | 2.0 | 11.0 | 0.00 | 0.00 | 0.00 | 39 | 1018.7 |
| 20260503221830 | 80 | 96 | 6.0 | 9.0 | 0.00 | 0.00 | 0.00 | 38 | 1019.1 |
| 20260503221336 | 81 | 132 | 2.0 | 6.0 | 0.00 | 0.00 | 0.00 | 37 | 1019.1 |
| 20260503220822 | 81 | 74 | 1.0 | 11.0 | 0.00 | 0.00 | 0.00 | 37 | 1019.1 |
| 20260503220328 | 81 | 186 | 5.0 | 11.0 | 0.00 | 0.00 | 0.00 | 37 | 1018.9 |
| 20260503215853 | 81 | 130 | 5.0 | 7.0 | 0.00 | 0.00 | 0.00 | 37 | 1018.9 |
| 20260503215338 | 81 | 136 | 2.0 | 6.0 | 0.00 | 0.00 | 0.00 | 37 | 1018.9 |
| 20260503214824 | 80 | 131 | 3.0 | 9.0 | 0.00 | 0.00 | 0.00 | 38 | 1019.1 |
| 20260503214328 | 80 | 114 | 6.0 | 9.0 | 0.00 | 0.00 | 0.00 | 38 | 1019.1 |
| 20260503213822 | 81 | 133 | 5.0 | 9.0 | 0.00 | 0.00 | 0.00 | 36 | 1019.1 |
| 20260503213328 | 81 | 187 | 2.0 | 6.0 | 0.00 | 0.00 | 0.00 | 36 | 1019.6 |
| 20260503212837 | 81 | 113 | 1.0 | 5.0 | 0.00 | 0.00 | 0.00 | 39 | 1019.6 |
| 20260503212324 | 81 | 123 | 1.0 | 9.0 | 0.00 | 0.00 | 0.00 | 35 | 1019.6 |
| 20260503211829 | 80 | 227 | 2.0 | 12.0 | 0.00 | 0.00 | 0.00 | 36 | 1019.6 |
| 20260503211334 | 81 | 85 | 3.0 | 5.0 | 0.00 | 0.00 | 0.00 | 37 | 1019.6 |
| 20260503210823 | 81 | 314 | 3.0 | 9.0 | 0.00 | 0.00 | 0.00 | 35 | 1019.6 |
| 20260503210327 | 80 | 139 | 5.0 | 12.0 | 0.00 | 0.00 | 0.00 | 35 | 1019.7 |
| 20260503205834 | 81 | 144 | 7.0 | 12.0 | 0.00 | 0.00 | 0.00 | 36 | 1019.7 |
| 20260503205320 | 80 | 184 | 5.0 | 11.0 | 0.00 | 0.00 | 0.00 | 37 | 1019.7 |
| 20260503204829 | 82 | 131 | 8.0 | 11.0 | 0.00 | 0.00 | 0.00 | 35 | 1020.1 |
| 20260503204332 | 82 | 198 | 2.0 | 9.0 | 0.00 | 0.00 | 0.00 | 36 | 1020.1 |
| 20260503203820 | 82 | 190 | 5.0 | 9.0 | 0.00 | 0.00 | 0.00 | 35 | 1020.1 |
| 20260503203349 | 81 | 295 | 2.0 | 6.0 | 0.00 | 0.00 | 0.00 | 37 | 1020.3 |
| 20260503202853 | 81 | 326 | 1.0 | 9.0 | 0.00 | 0.00 | 0.00 | 39 | 1020.3 |
| 20260503202357 | 80 | 120 | 3.0 | 9.0 | 0.00 | 0.00 | 0.00 | 39 | 1020.3 |
| 20260503201825 | 80 | 317 | 2.0 | 5.0 | 0.00 | 0.00 | 0.00 | 36 | 1020.6 |
| 20260503201331 | 81 | 84 | 2.0 | 5.0 | 0.00 | 0.00 | 0.00 | 37 | 1020.6 |
| 20260503200837 | 80 | 131 | 2.0 | 5.0 | 0.00 | 0.00 | 0.00 | 38 | 1020.6 |
| 20260503200322 | 80 | 70 | 2.0 | 6.0 | 0.00 | 0.00 | 0.00 | 40 | 1020.8 |
| 20260503195829 | 82 | 108 | 1.0 | 6.0 | 0.00 | 0.00 | 0.00 | 38 | 1020.8 |
| 20260503195338 | 82 | 63 | 2.0 | 5.0 | 0.00 | 0.00 | 0.00 | 37 | 1020.8 |
| 20260503194827 | 82 | 236 | 2.0 | 5.0 | 0.00 | 0.00 | 0.00 | 37 | 1021.1 |
| 20260503194336 | 81 | 234 | 1.0 | 9.0 | 0.00 | 0.00 | 0.00 | 39 | 1021.1 |
| 20260503193822 | 80 | 182 | 5.0 | 9.0 | 0.00 | 0.00 | 0.00 | 39 | 1021.1 |
| 20260503193331 | 79 | 138 | 2.0 | 12.0 | 0.00 | 0.00 | 0.00 | 41 | 1021.2 |
| 20260503192837 | 79 | 132 | 9.0 | 12.0 | 0.00 | 0.00 | 0.00 | 40 | 1021.2 |
| 20260503192343 | 80 | 77 | 4.0 | 7.0 | 0.00 | 0.00 | 0.00 | 41 | 1021.2 |
| 20260503191828 | 81 | 80 | 3.0 | 5.0 | 0.00 | 0.00 | 0.00 | 41 | 1021.6 |
| 20260503191333 | 80 | 306 | 2.0 | 7.0 | 0.00 | 0.00 | 0.00 | 37 | 1021.6 |
| 20260503190840 | 80 | 272 | 1.0 | 7.0 | 0.00 | 0.00 | 0.00 | 40 | 1021.6 |
| 20260503190325 | 80 | 179 | 3.0 | 11.0 | 0.00 | 0.00 | 0.00 | 38 | 1021.7 |
| 20260503185830 | 79 | 133 | 2.0 | 11.0 | 0.00 | 0.00 | 0.00 | 40 | 1021.7 |
| 20260503185339 | 79 | 99 | 2.0 | 11.0 | 0.00 | 0.00 | 0.00 | 42 | 1021.7 |
| 20260503184824 | 79 | 132 | 4.0 | 7.0 | 0.00 | 0.00 | 0.00 | 40 | 1021.8 |
| 20260503184332 | 79 | 57 | 3.0 | 5.0 | 0.00 | 0.00 | 0.00 | 40 | 1021.8 |
| 20260503183821 | 78 | 296 | 1.0 | 10.0 | 0.00 | 0.00 | 0.00 | 40 | 1021.8 |
| 20260503183326 | 78 | 355 | 2.0 | 10.0 | 0.00 | 0.00 | 0.00 | 42 | 1022.1 |
| 20260503182832 | 78 | 139 | 4.0 | 9.0 | 0.00 | 0.00 | 0.00 | 43 | 1022.1 |
| 20260503182337 | 79 | 126 | 5.0 | 9.0 | 0.00 | 0.00 | 0.00 | 41 | 1022.2 |
| 20260503181822 | 79 | 70 | 2.0 | 5.0 | 0.00 | 0.00 | 0.00 | 39 | 1022.2 |
| 20260503181331 | 79 | 78 | 2.0 | 5.0 | 0.00 | 0.00 | 0.00 | 41 | 1022.2 |
| 20260503180821 | 80 | 185 | 2.0 | 7.0 | 0.00 | 0.00 | 0.00 | 39 | 1022.2 |
| 20260503180325 | 79 | 250 | 0.0 | 7.0 | 0.00 | 0.00 | 0.00 | 40 | 1022.7 |
| 20260503175849 | 79 | 178 | 4.0 | 7.0 | 0.00 | 0.00 | 0.00 | 42 | 1022.7 |
| 20260503175337 | 79 | 82 | 3.0 | 5.0 | 0.00 | 0.00 | 0.00 | 42 | 1022.7 |
| 20260503174825 | 79 | 172 | 2.0 | 9.0 | 0.00 | 0.00 | 0.00 | 41 | 1022.8 |
| 20260503174331 | 78 | 116 | 6.0 | 9.0 | 0.00 | 0.00 | 0.00 | 41 | 1022.8 |
| 20260503173836 | 78 | 66 | 2.0 | 7.0 | 0.00 | 0.00 | 0.00 | 41 | 1022.8 |
| 20260503173322 | 78 | 295 | 2.0 | 6.0 | 0.00 | 0.00 | 0.00 | 43 | 1023.2 |
| 20260503172829 | 77 | 182 | 0.0 | 11.0 | 0.00 | 0.00 | 0.00 | 44 | 1023.2 |
| 20260503172355 | 76 | 276 | 2.0 | 11.0 | 0.00 | 0.00 | 0.00 | 44 | 1023.2 |
| 20260503171840 | 77 | 118 | 5.0 | 11.0 | 0.00 | 0.00 | 0.00 | 42 | 1023.3 |
| 20260503171326 | 77 | 138 | 4.0 | 8.0 | 0.00 | 0.00 | 0.00 | 43 | 1023.3 |
| 20260503170835 | 76 | 212 | 3.0 | 11.0 | 0.00 | 0.00 | 0.00 | 46 | 1023.3 |
| 20260503170321 | 76 | 224 | 5.0 | 11.0 | 0.00 | 0.00 | 0.00 | 44 | 1023.3 |
| 20260503150819 | 73 | 193 | 5.0 | 8.0 | 0.00 | 0.00 | 0.00 | 53 | 1023.2 |
| 20260503150327 | 72 | 151 | 4.0 | 9.0 | 0.00 | 0.00 | 0.00 | 54 | 1023.3 |
| 20260503060343 | 58 | 23 | 0.0 | 0.0 | 0.00 | 0.00 | 0.00 | 90 | 1021.5 |
| 20260503054837 | 58 | 23 | 0.0 | 0.0 | 0.00 | 0.00 | 0.00 | 90 | 1021.5 |
| 20260503054323 | 59 | 23 | 0.0 | 0.0 | 0.00 | 0.00 | 0.00 | 90 | 1021.5 |
| 20260503053850 | 59 | 23 | 0.0 | 0.0 | 0.00 | 0.00 | 0.00 | 90 | 1021.5 |
| 20260503053355 | 59 | 23 | 0.0 | 0.0 | 0.00 | 0.00 | 0.00 | 89 | 1021.2 |
| 20260503052840 | 59 | 23 | 0.0 | 0.0 | 0.00 | 0.00 | 0.00 | 89 | 1021.2 |
| 20260503052327 | 59 | 23 | 0.0 | 0.0 | 0.00 | 0.00 | 0.00 | 89 | 1021.2 |
| 20260503051855 | 59 | 23 | 0.0 | 0.0 | 0.00 | 0.00 | 0.00 | 89 | 1021.3 |
| 20260503051340 | 59 | 23 | 0.0 | 0.0 | 0.00 | 0.00 | 0.00 | 89 | 1021.3 |
| 20260503050827 | 59 | 23 | 0.0 | 0.0 | 0.00 | 0.00 | 0.00 | 88 | 1021.3 |
| 20260503050337 | 59 | 23 | 0.0 | 0.0 | 0.00 | 0.00 | 0.00 | 88 | 1021.2 |
| 20260503045822 | 59 | 23 | 0.0 | 0.0 | 0.00 | 0.00 | 0.00 | 88 | 1021.2 |
| 20260503045336 | 59 | 23 | 0.0 | 0.0 | 0.00 | 0.00 | 0.00 | 88 | 1021.2 |
| 20260503044843 | 59 | 23 | 0.0 | 0.0 | 0.00 | 0.00 | 0.00 | 87 | 1021.1 |
| 20260503044348 | 60 | 23 | 0.0 | 0.0 | 0.00 | 0.00 | 0.00 | 86 | 1021.1 |
| 20260503043833 | 60 | 23 | 0.0 | 0.0 | 0.00 | 0.00 | 0.00 | 86 | 1021.1 |
| 20260503043401 | 60 | 23 | 0.0 | 0.0 | 0.00 | 0.00 | 0.00 | 86 | 1021.1 |
| 20260503042827 | 60 | 23 | 0.0 | 0.0 | 0.00 | 0.00 | 0.00 | 86 | 1021.1 |